Weather History for Gillette, WY

Change the Weather History Date:

Thursday, November 4, 2010

  Actual Average Record
Temperature  
Mean Temperature 39 °F 38 °F  
Max Temperature 60 °F 51 °F 73 °F (1983)
Min Temperature 17 °F 25 °F -2 °F (1935)
Degree Days  
Heating Degree Days 26 27  
Month to date heating degree days 85 105  
Since 1 July heating degree days 774 1014  
Cooling Degree Days 0 0  
Month to date cooling degree days 0 0  
Year to date cooling degree days 429 502  
Moisture  
Dew Point 12 °F    
Average Humidity 42    
Maximum Humidity 73    
Minimum Humidity 11    
Precipitation  
Precipitation 0.00 in 0.03 in 0.40 in (1948)
Month to date precipitation 0.00 0.10  
Year to date precipitation 12.48 13.04  
Sea Level Pressure  
Sea Level Pressure 30.38 in    
Wind  
Wind Speed 8 mph (South)    
Max Wind Speed 17 mph    
Max Gust Speed 29 mph    
Visibility 10 miles    
Events      
T = Trace of Precipitation, MM = Missing Value Source: NWS Daily Summary

Daily Weather History Graph

Daily Weather History Graph

Search for Another Location

Airport:

Trip Planner

Search our weather history database for the weather conditions in past years. The results will help you decide how hot, cold, wet, or windy it might be!

Date:

Astronomy

Nov. 04, 2010 Rise Set
Actual Time 7:43 AM MDT 5:47 PM MDT
Civil Twilight 7:12 AM MDT 6:17 PM MDT
Nautical Twilight 6:38 AM MDT 6:52 PM MDT
Astronomical Twilight 6:04 AM MDT 7:26 PM MDT
Moon 5:56 AM MDT (11/4) 4:33 PM MDT (11/4)
Length of Visible Light 11h 05m
Length of Day
10h 04m
Waning Crescent, 3% of the Moon is Illuminated
Nov 4
Waning Crescent
Nov 5
New
Nov 13
First Quarter
Nov 21
Full
Nov 28
Last Quarter

Hourly Weather History & Observations

Time (MDT) Temp. Windchill Dew Point Humidity Pressure Visibility Wind Dir Wind Speed Gust Speed Precip Events Conditions
12:53 AM 23.0 °F 15.8 °F 14.0 °F 68% 30.58 in 10.0 mi South 5.8 mph - N/A   Clear
1:53 AM 23.0 °F 15.8 °F 12.9 °F 65% 30.56 in 10.0 mi South 5.8 mph - N/A   Clear
2:53 AM 21.0 °F - 14.0 °F 74% 30.57 in 10.0 mi Calm Calm - N/A   Clear
3:53 AM 19.0 °F 13.9 °F 12.0 °F 74% 30.55 in 10.0 mi WSW 3.5 mph - N/A   Clear
4:53 AM 21.9 °F 15.7 °F 12.9 °F 68% 30.53 in 10.0 mi South 4.6 mph - N/A   Clear
5:53 AM 26.1 °F 15.6 °F 15.1 °F 63% 30.53 in 10.0 mi South 11.5 mph - N/A   Clear
6:53 AM 28.0 °F 20.8 °F 14.0 °F 56% 30.53 in 10.0 mi South 6.9 mph - N/A   Clear
7:53 AM 28.0 °F 20.8 °F 15.1 °F 58% 30.52 in 10.0 mi South 6.9 mph - N/A   Clear
8:53 AM 36.0 °F 29.0 °F 17.1 °F 46% 30.51 in 10.0 mi SSE 9.2 mph - N/A   Clear
9:53 AM 44.1 °F 40.1 °F 18.0 °F 35% 30.50 in 10.0 mi SSW 6.9 mph - N/A   Clear
10:53 AM 50.0 °F - 15.1 °F 25% 30.44 in 10.0 mi SSW 10.4 mph - N/A   Clear
11:53 AM 53.1 °F - 8.1 °F 16% 30.40 in 10.0 mi WSW 6.9 mph - N/A   Clear
12:53 PM 55.9 °F - 10.9 °F 17% 30.37 in 10.0 mi Variable 5.8 mph - N/A   Clear
1:53 PM 57.0 °F - 8.1 °F 14% 30.32 in 10.0 mi SSE 5.8 mph - N/A   Clear
2:53 PM 59.0 °F - 8.1 °F 13% 30.28 in 10.0 mi South 4.6 mph - N/A   Clear
3:53 PM 60.1 °F - 7.0 °F 12% 30.27 in 10.0 mi South 5.8 mph - N/A   Clear
4:53 PM 57.0 °F - 3.9 °F 12% 30.25 in 10.0 mi ESE 6.9 mph - N/A   Clear
5:53 PM 39.9 °F 36.7 °F 7.0 °F 26% 30.28 in 10.0 mi SSW 4.6 mph - N/A   Clear
6:53 PM 43.0 °F 37.2 °F 8.1 °F 24% 30.25 in 10.0 mi South 10.4 mph - N/A   Clear
7:53 PM 43.0 °F - 14.0 °F 31% 30.25 in 10.0 mi North - - N/A   Clear
8:53 PM 42.1 °F 37.7 °F 16.0 °F 35% 30.21 in 10.0 mi SSE 6.9 mph - N/A   Clear
9:53 PM 42.1 °F 36.6 °F 17.1 °F 37% 30.17 in 10.0 mi SSE 9.2 mph - N/A   Clear
10:53 PM 39.9 °F 33.4 °F 16.0 °F 38% 30.15 in 10.0 mi SSE 10.4 mph - N/A   Clear
11:53 PM 41.0 °F 35.8 °F 15.1 °F 35% 30.13 in 10.0 mi SSE 8.1 mph - N/A   Clear